Location: Newark
(47.5833°N, 8.1500°E)
Time: 15:11:37
(UTC+00:00)

Tiros 1 - Pass Details

Date: 04 November 2020
Orbit: 630 x 664 km, 48.4° (Epoch: 29 November)

Event Time Altitude Azimuth Distance (km) Brightness Sun altitude
Exits shadow 05:29:02 11° 280° (W) 1,967 8.9 -8.4°
Maximum altitude 05:33:21 47° 208° (SSW) 839 7.7 -7.7°
Drops below altitude 10° 05:37:45 10° 135° (SE) 2,003 10.8 -7.0°
Sets 05:40:08 0° 129° (SE) 2,911 11.9 -6.6°
